Regional Weather Roundup
Issued by NWS

Home | Current Version | Previous Version | Graphics & Text | Print | Product List | Glossary On
Versions: 1 2 3 4 5 6 7 8 9 10 11 12 13 14 15 16 17 18 19 20 21 22 23 24 25 26 27 28 29 30 31 32 33 34 35 36 37 38 39 40 41 42 43 44 45 46 47 48 49 50
000
ASUS43 KDMX 302003
RWRIA

WEATHER ROUNDUP FOR IOWA
NATIONAL WEATHER SERVICE DES MOINES IA
300 PM CDT SAT APR 30 2016

NOTE: "FAIR" INDICATES FEW OR NO CLOUDS BELOW 12,000 FEET WITH NO
SIGNIFICANT WEATHER AND/OR OBSTRUCTIONS TO VISIBILITY.

* - THESE STATIONS ARE NOT NWS STATIONS...THUS NOT UNDER NWS
QUALITY CONTROL.  THEY ALSO DO NOT REPORT WEATHER SUCH
AS PRECIPITATION OR FOG.

IAZ001>003-012>014-020>022-031>034-043>046-302100-
   NORTHWEST IOWA

CITY           SKY/WX    TMP DP  RH WIND       PRES   REMARKS
CARROLL *      CLOUDY    48  46  93 E22G30    29.80R
CHEROKEE *     CLOUDY    46  45  95 E18       29.86R
DENISON *      PTSUNNY   46  45  93 E23       29.77R FOG
LE MARS *      CLOUDY    46  45  93 E13G25    29.85R
ORANGE CITY *  DRIZZLE   45  43  93 E16G26    29.85S
SHELDON *      CLOUDY    45  43  93 E29G39    29.84R
SIOUX CITY     LGT RAIN  48  44  86 E16G23    29.81R
SPENCER        CLOUDY    44  41  89 NE43G58   29.77F
STORM LAKE *   CLOUDY    46  43  87 E35G44    29.83S
$$

IAZ055>058-069>071-079>083-090>094-302100-
   SOUTHWEST IOWA

CITY           SKY/WX    TMP DP  RH WIND       PRES   REMARKS
ATLANTIC *     CLOUDY    50  46  87 E16G24    29.76R
AUDUBON *      RAIN      46  45  93 E18       29.79R
CLARINDA *       N/A    N/A N/A N/A MISG        N/A
COUNCIL BLFS * CLOUDY    48  48 100 E13       29.74S FOG
CRESTON *      CLOUDY    50  50 100 NE14      29.76R FOG
HARLAN  *      CLOUDY    48  46  93 E21G28    29.79R
LAMONI         CLOUDY    53  52  96 E6        29.73R FOG
RED OAK *      CLOUDY    52  50  93 E14G20    29.74R
SHENANDOAH *   CLOUDY    54  54 100 E9        29.74R FOG
$$

IAZ047>049-059>061-072>074-084-302100-
   CENTRAL IOWA

CITY           SKY/WX    TMP DP  RH WIND       PRES   REMARKS
AMES           LGT RAIN  48  48 100 E18G25    29.81S FOG
ANKENY *       CLOUDY    48  48 100 NE14      29.79S FOG
BOONE *        CLOUDY    48  46  93 E25G31    29.81R FOG
CHARITON *     CLOUDY    52  52 100 E9G15     29.74S FOG
DES MOINES     LGT RAIN  50  46  86 E15G22    29.77S FOG
GRINNELL*      CLOUDY    48  48 100 NE23      29.80S
KNOXVILLE *    CLOUDY    50  48  93 E16       29.75S FOG
MARSHALLTOWN   CLOUDY    48  45  89 E26G38    29.81F
NEWTON *       CLOUDY    50  50 100 E20G28    29.79R FOG
PELLA *        CLOUDY    50  49  97 E12G18    29.78S FOG
$$

IAZ004>006-015-016-023>025-035-036-302100-
   NORTH CENTRAL IOWA

CITY           SKY/WX    TMP DP  RH WIND       PRES   REMARKS
ALGONA *       RAIN      45  43  93 NE25G32   29.90F
CLARION *      LGT RAIN  45  45 100 NE18G28   29.86S
ESTHERVILLE    LGT RAIN  42  41  96 NE24      29.95F FOG
FORT DODGE *   CLOUDY    45  41  87 NE20G28   29.86R
MASON CITY     RAIN      43  41  93 NE24G31   29.93S FOG
FOREST CITY *  RAIN      43  41  93 NE15G24   29.94F
WEBSTER CITY * CLOUDY    46  46 100 E21       29.83R FOG
IOWA FALLS *   LGT RAIN  46  45  93 E16       29.87S
$$

IAZ007>011-017>019-026>030-037>042-050>054-066-302100-
   NORTHEAST IOWA

CITY           SKY/WX    TMP DP  RH WIND       PRES   REMARKS
CEDAR RAPIDS   LGT RAIN  48  46  93 E18       29.82R FOG
CHARLES CITY * RAIN      45  45 100 NE14G21   29.96R
CLINTON *      LGT RAIN  47  46  97 E25G36    29.83S FOG
DECORAH *      LGT RAIN  45  45 100 NE14G21   29.94S
DUBUQUE        RAIN      46  43  89 NE21G33   29.87F FOG
MONTICELLO *   LGT RAIN  48  46  93 NE21G29   29.85R
OELWEIN *      HVY RAIN  46  46 100 E21       29.90R
WATERLOO       RAIN      46  44  93 NE16      29.91R FOG
$$

IAZ064-065-067-068-078-302100-
   EAST CENTRAL IOWA

CITY           SKY/WX    TMP DP  RH WIND       PRES   REMARKS
DAVENPORT      RAIN      48  46  93 E18       29.81F FOG
IOWA CITY      LGT RAIN  49  48  97 NE14G24   29.83R FOG
MT. PLEASANT * DRIZZLE   55  55 100 E9        29.75S
MUSCATINE *    CLOUDY    50  48  93 E10G17    29.80R FOG
QUAD CITIES    LGT RAIN  50  46  86 E17G31    29.80F
$$

IAZ062-063-075>077-085>089-095>099-302100-
   SOUTHEAST IOWA

CITY           SKY/WX    TMP DP  RH WIND       PRES   REMARKS
BURLINGTON     LGT RAIN  56  56 100 E9        29.74R FOG
FAIRFIELD *    CLOUDY    54  52  94 NE14      29.75R FOG
FORT MADISON * CLOUDY    57  55  94 E8        29.74R FOG
KEOKUK *       CLOUDY    59  59 100 SE8       29.71S
OSKALOOSA *    CLOUDY    50  50 100 NE12G22   29.77R FOG
OTTUMWA        CLOUDY    52  51  97 NE13      29.75S FOG
WASHINGTON *   FOG       50  50 100 NE16      29.79R VSB 3/4
$$

ABBREVIATIONS USED IN REMARKS
   TC - TEMPERATURES IN CELSIUS
  WCI - WIND CHILL INDEX
   HX - HEAT INDEX
  VSB - VISIBILITY
$$




USA.gov is the U.S. government's official web portal to all federal, state and local government web resources and services.